Home   Weather   Peine   Past weeks

Flag for Germany Past Weather in Peine, Lower Saxony, Germany — Yesterday and Last 2 Weeks

Now
46 °F

Clear.


Feels Like: 41 °F
Forecast: 41 / 45 °F
Wind: 12 mph from Southwest

Location: Braunschweig Wolfsburg

Current Time: Dec 10, 2016 at 12:35:33 am

Latest Report: Dec 9, 2016 at 10:50 pm


Visibility: 10 mi

Pressure: 30.24 "Hg

Humidity: 93%

Dew Point: 45 °F

Location of PeineLocation

Past Weather in Peine — Graph

°F

Peine Temperature Yesterday

Maximum temperature yesterday: 48 °F (at 12:50 pm)
Minimum temperature yesterday: 41 °F (at 5:20 am)
Average temperature yesterday: 45 °F

High & Low Weather Summary for the Past Weeks

 TemperatureHumidityPressure
High48 °F (Dec 8, 1:50 pm)100% (Nov 25, 6:50 am)30.57 "Hg (Nov 25, 6:50 am)
Low19 °F (Nov 29, 7:20 am)52% (Dec 5, 1:50 pm)29.95 "Hg (Dec 1, 9:50 pm)
Average36 °F83%30.30 "Hg
* Reported Nov 25 6:50 am — Dec 9 10:50 pm, Peine, Weather by CustomWeather, © 2016

Note: Actual official high and low records may vary slightly from our data, if they occured in-between our weather recording intervals... More about our weather records

Advertising

Peine Weather History for the Previous 24 Hours

Scroll right to see more
 ConditionsComfort  
Time TempWeatherWind HumidityBarometerVisibility
10:50 pm
Fri, Dec 9
46 °FClear.12 mph93%30.24 "Hg10 mi
9:50 pm46 °FOvercast.13 mph93%30.24 "HgN/A
9:20 pm46 °FLow clouds.15 mph93%30.24 "HgN/A
8:20 pm46 °FMostly cloudy.14 mph93%30.24 "Hg5 mi
6:50 pm46 °FDrizzle. Low clouds.10 mph93%30.27 "Hg3 mi
6:20 pm46 °FDrizzle. Low clouds.10 mph93%30.27 "Hg6 mi
5:50 pm46 °FLow clouds.10 mph93%30.27 "Hg4 mi
5:20 pm46 °FOvercast.9 mph93%30.30 "Hg4 mi
4:50 pm46 °FLow clouds.8 mph93%30.30 "Hg4 mi
4:20 pm46 °FLow clouds.8 mph93%30.30 "Hg4 mi
3:50 pm46 °FFog.9 mph93%30.30 "Hg3 mi
3:20 pm46 °FPartly sunny.8 mph93%30.30 "Hg4 mi
2:50 pm48 °FPartly sunny.10 mph87%30.30 "Hg5 mi
2:20 pm48 °FPartly sunny.14 mph87%30.30 "Hg6 mi
1:50 pm48 °FMostly cloudy.14 mph94%30.30 "Hg6 mi
1:20 pm48 °FLow clouds.10 mph94%30.30 "Hg4 mi
12:50 pm48 °FLow clouds.8 mph94%30.30 "Hg5 mi
12:20 pm46 °FLow clouds.9 mph100%30.30 "Hg4 mi
11:50 am46 °FLow clouds.8 mph100%30.30 "Hg4 mi
11:20 am46 °FFog.9 mph100%30.30 "Hg3 mi
10:50 am46 °FFog.13 mph93%30.30 "Hg2 mi
10:20 am46 °FLow clouds.12 mph93%30.27 "Hg3 mi
9:50 am45 °FFog.13 mph100%30.27 "Hg2 mi
9:20 am43 °FFog.8 mph100%30.27 "Hg2 mi
8:50 am43 °FFog.10 mph93%30.27 "Hg2 mi
8:20 am43 °FFog.12 mph93%30.27 "Hg3 mi
7:50 am41 °FFog.10 mph100%30.24 "Hg3 mi
7:20 am41 °FLow clouds.12 mph100%30.24 "Hg4 mi
6:50 am41 °FDrizzle. Low clouds.12 mph93%30.24 "Hg3 mi
6:20 am41 °FDrizzle. Mostly cloudy.12 mph93%30.24 "Hg2 mi
5:20 am41 °FFog.9 mph93%30.24 "Hg3 mi
Weather by CustomWeather, © 2016

See weather overviewHow to use our weather pages